Flag for U.S.A. Weather past 2 weeks in Atlanta, Georgia, U.S.A.

Now
45 °F

Fog.


Feels Like: 42 °F
Forecast: 44 / 49 °F
Wind: 6 mph from East

Location: Fulton County Airport-Brown Field

Current Time: Dec 22, 2014 at 12:29:52 PM

Latest Report: Dec 22, 2014 at 11:53 AM


Visibility: 3 mi

Pressure: 30.00 "Hg

Humidity: 93%

Dew point: 43 °F

Location of AtlantaLocation

Historic Weather in Atlanta — Graph

°F

Atlanta temperature yesterday

Maximum temperature yesterday: 50 °F (at 11:53 AM)
Minimum temperature yesterday: 45 °F (at 7:53 AM)
Average temperature yesterday: 48 °F

Past Weeks' High & Low Weather Summary

 TemperatureHumidityPressure
High62 °F (Dec 7, 2:53 PM)93% (Dec 16, 6:53 AM)30.36 "Hg (Dec 16, 6:53 AM)
Low30 °F (Dec 15, 6:53 AM)13% (Dec 12, 1:53 PM)29.93 "Hg (Dec 16, 4:53 AM)
Average45 °F65%30.16 "Hg
* Reported Dec 7 10:53 AM — Dec 22 10:53 AM, Atlanta, Weather by CustomWeather, © 2014

Note: Actual official high and low records may vary slightly from our data, if they occured in-between our weather recording intervals... More about our weather records

Advertising

Atlanta weather history for previous 24 hours

 ConditionsComfort  
Time TempWeatherWind HumidityBarometerVisibility
10:53 AM
Dec 22
45 °FFog.8 mph93%30.02 "Hg2 mi
9:53 AM45 °FFog.8 mph93%30.03 "Hg4 mi
8:53 AM45 °FFog.8 mph93%30.02 "Hg6 mi
7:53 AM45 °FLow clouds.12 mph90%30.03 "Hg9 mi
6:53 AM45 °FFog.8 mph93%30.03 "Hg6 mi
5:53 AM46 °FFog.9 mph89%30.01 "Hg6 mi
5:00 AM46 °FLow clouds.7 mph89%30.03 "Hg10 mi
3:53 AM46 °FOvercast.8 mph89%30.04 "Hg7 mi
2:53 AM47 °FFog.8 mph90%30.05 "Hg4 mi
2:03 AM47 °FFog.8 mph90%30.06 "Hg4 mi
12:53 AM48 °FOvercast.7 mph86%30.07 "Hg7 mi
11:53 PM
Dec 21
49 °FOvercast.10 mph80%30.09 "Hg10 mi
10:53 PM50 °FOvercast.7 mph77%30.09 "Hg10 mi
9:53 PM50 °FOvercast.10 mph77%30.09 "Hg10 mi
8:53 PM50 °FMostly cloudy.6 mph77%30.10 "Hg10 mi
7:53 PM49 °FMostly cloudy.8 mph80%30.09 "Hg10 mi
6:53 PM49 °FOvercast.6 mph80%30.11 "Hg10 mi
5:53 PM49 °FOvercast.5 mph80%30.11 "Hg9 mi
4:53 PM49 °FOvercast.9 mph80%30.11 "Hg9 mi
3:53 PM49 °FOvercast.8 mph80%30.11 "Hg10 mi
2:53 PM50 °FOvercast.6 mph77%30.11 "Hg10 mi
1:53 PM49 °FOvercast.7 mph84%30.13 "Hg10 mi
12:53 PM49 °FOvercast.6 mph80%30.15 "Hg9 mi
Weather by CustomWeather, © 2014

See weather overviewHow to use our weather pages